FW2498 Weather Reports


time (UTC)temp
C
wind
direction
speed
KPH
gust
KPH
rain 1hr
cm
rain 24hr
cm
rain mn
cm
humidity
%
barometer
mb
20260502163050 16 358 27.4 40.2 0.00 0.00 0.00 38 1015.2
20260502161543 16 350 27.4 40.2 0.00 0.00 0.00 38 1015.2
20260502151555 14 318 14.5 24.1 0.00 0.00 0.00 48 1014.9
20260502123055 8 273 11.3 16.1 0.00 0.00 0.00 61 1014.3
20260502121551 8 267 14.5 19.3 0.00 0.00 0.00 59 1014.3
20260502114546 9 273 19.3 24.1 0.00 0.00 0.00 55 1014.2
20260502113050 10 268 20.9 25.7 0.00 0.00 0.00 53 1014.1
20260502111547 10 260 22.5 30.6 0.00 0.00 0.00 52 1013.7
20260502110044 9 245 20.9 25.7 0.00 0.00 0.00 53 1013.5
20260502104540 9 240 22.5 27.4 0.00 0.00 0.00 52 1013.6
20260502103038 10 230 22.5 25.7 0.00 0.00 0.00 51 1013.6
20260502101537 10 240 22.5 29.0 0.00 0.00 0.00 51 1013.7
20260502091530 11 217 29.0 35.4 0.00 0.00 0.00 45 1013.6
20260502071518 11 200 29.0 40.2 0.00 0.00 0.00 41 1014.1
20260502070035 11 204 29.0 37.0 0.00 0.00 0.00 40 1014.2
20260502064516 11 206 27.4 37.0 0.00 0.00 0.00 39 1014.3
20260502063031 11 193 29.0 37.0 0.00 0.00 0.00 39 1014.3
20260502061511 10 197 24.1 30.6 0.00 0.00 0.00 42 1014.6
20260502060008 10 197 24.1 30.6 0.00 0.00 0.00 42 1014.9
20260502054518 10 203 20.9 27.4 0.00 0.00 0.00 43 1014.9
20260502053005 10 196 22.5 30.6 0.00 0.00 0.00 42 1015.2
20260502051503 10 200 25.7 30.6 0.00 0.00 0.00 41 1015.3
20260502050002 11 197 22.5 29.0 0.00 0.00 0.00 41 1015.4
20260502044501 10 183 19.3 25.7 0.00 0.00 0.00 42 1015.5
20260502043059 10 216 9.7 17.7 0.00 0.00 0.00 42 1015.8
20260502041605 10 214 11.3 19.3 0.00 0.00 0.00 42 1016.0
20260502040057 10 193 17.7 22.5 0.00 0.00 0.00 42 1016.0
20260502034556 10 192 16.1 20.9 0.00 0.00 0.00 40 1016.2
20260502033101 10 206 11.3 16.1 0.00 0.00 0.00 40 1016.3
20260502031600 11 213 9.7 14.5 0.00 0.00 0.00 39 1016.5
20260502030056 11 217 9.7 14.5 0.00 0.00 0.00 38 1016.6
20260502024606 11 225 9.7 12.9 0.00 0.00 0.00 37 1016.6
20260502023107 13 227 8.0 12.9 0.00 0.00 0.00 34 1016.7
20260502021550 15 214 9.7 12.9 0.00 0.00 0.00 31 1016.7
20260502020053 16 202 9.7 14.5 0.00 0.00 0.00 29 1016.8
20260502014549 16 198 12.9 16.1 0.00 0.00 0.00 27 1016.8
20260502013047 17 196 14.5 20.9 0.00 0.00 0.00 25 1016.8
20260502011546 18 199 14.5 22.5 0.00 0.00 0.00 24 1017.0
20260502010043 18 200 20.9 25.7 0.00 0.00 0.00 22 1017.2
20260502004543 18 196 16.1 24.1 0.00 0.00 0.00 21 1017.3
20260502003039 18 218 12.9 29.0 0.00 0.00 0.00 21 1017.5
20260502001539 19 195 17.7 25.7 0.00 0.00 0.00 20 1017.7
20260502000059 18 185 16.1 29.0 0.00 0.00 0.00 20 1017.8
20260501234537 18 228 17.7 27.4 0.00 0.00 0.00 19 1017.8
20260501233034 19 193 17.7 30.6 0.00 0.00 0.00 20 1018.1
20260501231532 19 227 20.9 30.6 0.00 0.00 0.00 20 1018.0
20260501230033 19 240 17.7 27.4 0.00 0.00 0.00 20 1018.0
20260501224544 19 235 14.5 22.5 0.00 0.00 0.00 19 1017.9
20260501223024 18 205 20.9 25.7 0.00 0.00 0.00 20 1018.3
20260501221523 18 178 20.9 35.4 0.00 0.00 0.00 20 1018.5
20260501220029 18 187 16.1 30.6 0.00 0.00 0.00 20 1018.7
20260501214517 18 189 12.9 27.4 0.00 0.00 0.00 19 1018.8
20260501213014 18 196 20.9 29.0 0.00 0.00 0.00 20 1019.0
20260501211518 18 171 14.5 24.1 0.00 0.00 0.00 20 1019.3
20260501210010 18 192 12.9 38.6 0.00 0.00 0.00 21 1019.4
20260501204509 17 245 16.1 32.2 0.00 0.00 0.00 22 1019.5
20260501203004 17 189 17.7 32.2 0.00 0.00 0.00 21 1019.6
20260501201502 17 172 12.9 22.5 0.00 0.00 0.00 24 1019.7
20260501200059 17 160 9.7 30.6 0.00 0.00 0.00 24 1019.8
20260501194602 16 171 6.4 25.7 0.00 0.00 0.00 25 1019.9
20260501193057 17 162 12.9 30.6 0.00 0.00 0.00 25 1019.9
20260501191555 16 179 12.9 41.8 0.00 0.00 0.00 25 1020.3
20260501190052 16 153 11.3 27.4 0.00 0.00 0.00 26 1020.2
20260501184549 16 172 14.5 27.4 0.00 0.00 0.00 26 1020.4
20260501183046 16 158 14.5 20.9 0.00 0.00 0.00 26 1020.4
20260501181543 16 194 14.5 32.2 0.00 0.00 0.00 25 1020.3